Time,TemperatureF,DewpointF,PressureIn,WindDirection,WindDirectionDegrees,WindSpeedMPH,WindSpeedGustMPH,Humidity,HourlyPrecipIn,Conditions,Clouds,dailyrainin,SoftwareType,DateUTC
2013-07-10 00:02:00,68.7,64.9,30.12,SW,225,0.0,0.0,88,0.00,,,0.00,meteohub,2013-07-10 04:02:00,
2013-07-10 00:07:00,68.5,64.8,30.12,SW,225,0.0,0.0,88,0.00,,,0.00,meteohub,2013-07-10 04:07:00,
2013-07-10 00:12:00,68.5,64.8,30.12,SW,225,0.0,0.0,88,0.00,,,0.00,meteohub,2013-07-10 04:12:00,
2013-07-10 00:17:00,68.5,64.8,30.09,SSE,158,0.0,0.0,88,0.00,,,0.00,meteohub,2013-07-10 04:17:00,
2013-07-10 00:22:00,68.5,64.8,30.09,SW,225,0.0,0.0,88,0.00,,,0.00,meteohub,2013-07-10 04:22:00,
2013-07-10 00:27:00,68.5,64.8,30.09,South,180,0.0,0.0,88,0.00,,,0.00,meteohub,2013-07-10 04:27:00,
2013-07-10 00:32:00,68.5,64.8,30.12,South,180,0.0,0.0,88,0.00,,,0.00,meteohub,2013-07-10 04:32:00,
2013-07-10 00:37:00,68.5,64.8,30.12,SSE,158,0.0,1.0,88,0.00,,,0.00,meteohub,2013-07-10 04:37:00,
2013-07-10 00:42:00,68.5,64.8,30.12,ESE,112,1.0,3.0,88,0.00,,,0.00,meteohub,2013-07-10 04:42:00,
2013-07-10 00:47:00,68.5,64.8,30.12,SSE,158,0.0,3.0,88,0.00,,,0.00,meteohub,2013-07-10 04:47:00,
2013-07-10 00:52:00,68.4,64.4,30.12,SSE,158,1.0,2.0,87,0.00,,,0.00,meteohub,2013-07-10 04:52:00,
2013-07-10 00:57:00,68.4,64.4,30.12,NE,45,0.0,2.0,87,0.00,,,0.00,meteohub,2013-07-10 04:57:00,
2013-07-10 01:07:00,68.4,64.6,30.12,WNW,292,0.0,2.0,88,0.00,,,0.00,meteohub,2013-07-10 05:07:00,
2013-07-10 01:12:00,68.4,64.6,30.12,South,180,0.0,1.0,88,0.00,,,0.00,meteohub,2013-07-10 05:12:00,
2013-07-10 01:17:00,68.4,64.6,30.12,SSE,158,0.0,0.0,88,0.00,,,0.00,meteohub,2013-07-10 05:17:00,
2013-07-10 01:22:00,68.4,64.6,30.12,ENE,68,1.0,3.0,88,0.00,,,0.00,meteohub,2013-07-10 05:22:00,
2013-07-10 01:27:00,68.4,64.6,30.12,NE,45,0.0,3.0,88,0.00,,,0.00,meteohub,2013-07-10 05:27:00,
2013-07-10 01:32:00,68.4,64.6,30.12,ENE,68,0.0,3.0,88,0.00,,,0.00,meteohub,2013-07-10 05:32:00,
2013-07-10 01:37:00,68.4,64.6,30.12,East,90,0.0,3.0,88,0.00,,,0.00,meteohub,2013-07-10 05:37:00,
2013-07-10 01:42:00,68.4,64.6,30.12,ENE,68,0.0,3.0,88,0.00,,,0.00,meteohub,2013-07-10 05:42:00,
2013-07-10 01:47:00,68.4,64.6,30.12,ENE,68,0.0,3.0,88,0.00,,,0.00,meteohub,2013-07-10 05:47:00,
2013-07-10 01:52:00,68.2,64.4,30.12,WNW,292,0.0,3.0,88,0.00,,,0.00,meteohub,2013-07-10 05:52:00,
2013-07-10 01:57:00,68.2,64.4,30.12,NE,45,0.0,0.0,88,0.00,,,0.00,meteohub,2013-07-10 05:57:00,
2013-07-10 02:02:00,68.2,64.4,30.09,NNE,22,0.0,1.0,88,0.00,,,0.00,meteohub,2013-07-10 06:02:00,
2013-07-10 02:07:00,68.2,64.8,30.09,NNW,338,0.0,1.0,89,0.00,,,0.00,meteohub,2013-07-10 06:07:00,
2013-07-10 02:12:00,68.0,64.6,30.09,WSW,248,0.0,1.0,89,0.00,,,0.00,meteohub,2013-07-10 06:12:00,
2013-07-10 02:17:00,68.0,64.6,30.12,WSW,248,0.0,0.0,89,0.00,,,0.00,meteohub,2013-07-10 06:17:00,
2013-07-10 02:22:00,68.0,64.6,30.12,NNW,338,0.0,0.0,89,0.00,,,0.00,meteohub,2013-07-10 06:22:00,
2013-07-10 02:27:00,68.0,64.6,30.12,NE,45,2.0,0.0,89,0.00,,,0.00,meteohub,2013-07-10 06:27:00,
2013-07-10 02:32:00,68.0,64.6,30.09,North,0,0.0,2.0,89,0.00,,,0.00,meteohub,2013-07-10 06:32:00,
2013-07-10 02:37:00,68.0,64.6,30.09,SSW,202,0.0,2.0,89,0.00,,,0.00,meteohub,2013-07-10 06:37:00,
2013-07-10 02:42:00,68.0,64.6,30.09,ESE,112,0.0,2.0,89,0.00,,,0.00,meteohub,2013-07-10 06:42:00,
2013-07-10 02:47:00,68.0,64.9,30.09,SE,135,0.0,3.0,90,0.00,,,0.00,meteohub,2013-07-10 06:47:00,
2013-07-10 02:52:00,68.0,64.9,30.09,West,270,0.0,3.0,90,0.00,,,0.00,meteohub,2013-07-10 06:52:00,
2013-07-10 02:57:00,68.0,64.9,30.09,NNW,338,0.0,3.0,90,0.00,,,0.00,meteohub,2013-07-10 06:57:00,
2013-07-10 03:02:00,68.0,64.9,30.09,East,90,0.0,2.0,90,0.00,,,0.00,meteohub,2013-07-10 07:02:00,
2013-07-10 03:07:00,68.0,64.9,30.09,ENE,68,0.0,2.0,90,0.00,,,0.00,meteohub,2013-07-10 07:07:00,
2013-07-10 03:12:00,68.0,64.9,30.09,ENE,68,0.0,2.0,90,0.00,,,0.00,meteohub,2013-07-10 07:12:00,
2013-07-10 03:17:00,68.0,64.9,30.09,SSW,202,0.0,1.0,90,0.00,,,0.00,meteohub,2013-07-10 07:17:00,
2013-07-10 03:22:00,68.0,64.9,30.09,ENE,68,0.0,0.0,90,0.00,,,0.00,meteohub,2013-07-10 07:22:00,
2013-07-10 03:27:00,68.0,64.9,30.09,North,0,0.0,3.0,90,0.00,,,0.00,meteohub,2013-07-10 07:27:00,
2013-07-10 03:32:00,68.0,64.9,30.06,WNW,292,0.0,3.0,90,0.00,,,0.00,meteohub,2013-07-10 07:32:00,
2013-07-10 03:37:00,68.0,65.3,30.06,ENE,68,0.0,3.0,91,0.00,,,0.00,meteohub,2013-07-10 07:37:00,
2013-07-10 03:42:00,67.8,65.5,30.06,ENE,68,0.0,2.0,92,0.00,,,0.00,meteohub,2013-07-10 07:42:00,
2013-07-10 03:47:00,67.8,65.5,30.06,SSW,202,0.0,2.0,92,0.00,,,0.00,meteohub,2013-07-10 07:47:00,
2013-07-10 03:52:00,67.6,65.3,30.06,South,180,0.0,2.0,92,0.00,,,0.00,meteohub,2013-07-10 07:52:00,
2013-07-10 03:57:00,67.6,65.3,30.06,South,180,0.0,1.0,92,0.00,,,0.00,meteohub,2013-07-10 07:57:00,
2013-07-10 04:02:00,67.6,65.3,30.06,South,180,0.0,1.0,92,0.00,,,0.00,meteohub,2013-07-10 08:02:00,
2013-07-10 04:07:00,67.6,65.3,30.06,South,180,0.0,0.0,92,0.00,,,0.00,meteohub,2013-07-10 08:07:00,
2013-07-10 04:12:00,67.6,65.5,30.06,South,180,0.0,0.0,93,0.00,,,0.00,meteohub,2013-07-10 08:12:00,
2013-07-10 04:17:00,67.6,65.5,30.06,South,180,0.0,0.0,93,0.00,,,0.00,meteohub,2013-07-10 08:17:00,
2013-07-10 04:22:00,67.5,65.7,30.06,SE,135,0.0,0.0,94,0.00,,,0.00,meteohub,2013-07-10 08:22:00,
2013-07-10 04:27:00,67.5,65.7,30.06,SSE,158,0.0,2.0,94,0.00,,,0.00,meteohub,2013-07-10 08:27:00,
2013-07-10 04:32:00,67.3,65.5,30.06,ENE,68,1.0,2.0,94,0.00,,,0.00,meteohub,2013-07-10 08:32:00,
2013-07-10 04:37:00,67.3,65.8,30.06,NNE,22,1.0,2.0,95,0.00,,,0.00,meteohub,2013-07-10 08:37:00,
2013-07-10 04:42:00,67.3,65.8,30.06,North,0,0.0,3.0,95,0.00,,,0.00,meteohub,2013-07-10 08:42:00,
2013-07-10 04:47:00,67.3,65.8,30.06,NNW,338,0.0,3.0,95,0.00,,,0.00,meteohub,2013-07-10 08:47:00,
2013-07-10 04:52:00,67.3,65.8,30.06,ESE,112,0.0,3.0,95,0.00,,,0.00,meteohub,2013-07-10 08:52:00,
2013-07-10 04:57:00,67.3,66.0,30.06,NE,45,0.0,2.0,96,0.00,,,0.00,meteohub,2013-07-10 08:57:00,
2013-07-10 05:02:00,67.3,66.0,30.03,North,0,0.0,2.0,96,0.00,,,0.00,meteohub,2013-07-10 09:02:00,
2013-07-10 05:07:00,67.3,66.0,30.03,NNW,338,0.0,1.0,96,0.00,,,0.00,meteohub,2013-07-10 09:07:00,
2013-07-10 05:12:00,67.3,66.0,30.03,WNW,292,0.0,1.0,96,0.00,,,0.00,meteohub,2013-07-10 09:12:00,
2013-07-10 05:17:00,67.3,66.0,30.06,WNW,292,0.0,1.0,96,0.00,,,0.00,meteohub,2013-07-10 09:17:00,
2013-07-10 05:22:00,67.3,66.4,30.06,ESE,112,0.0,1.0,97,0.00,,,0.00,meteohub,2013-07-10 09:22:00,
2013-07-10 05:27:00,67.3,66.4,30.06,SSE,158,0.0,4.0,97,0.00,,,0.00,meteohub,2013-07-10 09:27:00,
2013-07-10 05:32:00,67.3,66.4,30.06,WNW,292,0.0,4.0,97,0.00,,,0.00,meteohub,2013-07-10 09:32:00,
2013-07-10 05:37:00,67.3,66.4,30.06,WNW,292,0.0,4.0,97,0.00,,,0.00,meteohub,2013-07-10 09:37:00,
2013-07-10 05:42:00,67.3,66.4,30.06,WNW,292,0.0,0.0,97,0.00,,,0.00,meteohub,2013-07-10 09:42:00,
2013-07-10 05:47:00,67.3,66.4,30.06,East,90,0.0,0.0,97,0.00,,,0.00,meteohub,2013-07-10 09:47:00,
2013-07-10 05:52:00,67.3,66.4,30.06,NE,45,0.0,0.0,97,0.00,,,0.00,meteohub,2013-07-10 09:52:00,
2013-07-10 05:57:00,67.3,66.4,30.06,NW,315,0.0,0.0,97,0.00,,,0.00,meteohub,2013-07-10 09:57:00,
2013-07-10 06:02:00,67.3,66.4,30.06,NW,315,0.0,1.0,97,0.00,,,0.00,meteohub,2013-07-10 10:02:00,
2013-07-10 06:07:00,67.3,66.4,30.06,NNE,22,0.0,1.0,97,0.00,,,0.00,meteohub,2013-07-10 10:07:00,
2013-07-10 06:12:00,67.3,66.4,30.06,NNE,22,0.0,1.0,97,0.00,,,0.00,meteohub,2013-07-10 10:12:00,
2013-07-10 06:17:00,67.3,66.4,30.06,NE,45,2.0,0.0,97,0.00,,,0.00,meteohub,2013-07-10 10:17:00,
2013-07-10 06:22:00,67.5,66.6,30.06,East,90,0.0,2.0,97,0.00,,,0.00,meteohub,2013-07-10 10:22:00,
2013-07-10 06:27:00,67.5,66.6,30.06,East,90,0.0,2.0,97,0.00,,,0.00,meteohub,2013-07-10 10:27:00,
2013-07-10 06:32:00,67.5,66.6,30.06,East,90,0.0,2.0,97,0.00,,,0.00,meteohub,2013-07-10 10:32:00,
2013-07-10 06:37:00,67.5,66.6,30.06,East,90,0.0,0.0,97,0.00,,,0.00,meteohub,2013-07-10 10:37:00,
2013-07-10 06:42:00,67.5,66.9,30.06,East,90,0.0,0.0,98,0.00,,,0.00,meteohub,2013-07-10 10:42:00,
2013-07-10 06:47:00,67.5,66.9,30.06,East,90,0.0,0.0,98,0.00,,,0.00,meteohub,2013-07-10 10:47:00,
2013-07-10 06:52:00,67.6,66.7,30.06,SSE,158,0.0,2.0,97,0.00,,,0.00,meteohub,2013-07-10 10:52:00,
2013-07-10 06:57:00,67.6,67.1,30.06,West,270,0.0,2.0,98,0.00,,,0.00,meteohub,2013-07-10 10:57:00,
2013-07-10 07:02:00,67.6,67.1,30.06,West,270,0.0,2.0,98,0.00,,,0.00,meteohub,2013-07-10 11:02:00,
2013-07-10 07:07:00,67.6,67.1,30.06,West,270,0.0,1.0,98,0.00,,,0.00,meteohub,2013-07-10 11:07:00,
2013-07-10 07:12:00,67.8,67.3,30.06,NNE,22,0.0,0.0,98,0.00,,,0.00,meteohub,2013-07-10 11:12:00,
2013-07-10 07:17:00,67.6,67.1,30.06,SSE,158,0.0,3.0,98,0.00,,,0.00,meteohub,2013-07-10 11:17:00,
2013-07-10 07:22:00,67.8,67.3,30.06,ENE,68,1.0,3.0,98,0.00,,,0.00,meteohub,2013-07-10 11:22:00,
2013-07-10 07:27:00,67.8,67.3,30.06,North,0,0.0,3.0,98,0.00,,,0.00,meteohub,2013-07-10 11:27:00,
2013-07-10 07:32:00,68.0,67.1,30.06,WSW,248,0.0,3.0,97,0.00,,,0.00,meteohub,2013-07-10 11:32:00,
2013-07-10 07:37:00,68.2,67.3,30.06,WSW,248,2.0,3.0,97,0.00,,,0.00,meteohub,2013-07-10 11:37:00,
2013-07-10 07:42:00,68.2,67.3,30.06,ENE,68,0.0,2.0,97,0.00,,,0.00,meteohub,2013-07-10 11:42:00,
2013-07-10 07:47:00,68.2,67.6,30.03,NE,45,1.0,3.0,98,0.00,,,0.00,meteohub,2013-07-10 11:47:00,
2013-07-10 07:52:00,68.2,67.6,30.03,ENE,68,1.0,3.0,98,0.00,,,0.00,meteohub,2013-07-10 11:52:00,
2013-07-10 07:57:00,68.2,67.6,30.03,South,180,0.0,2.0,98,0.00,,,0.00,meteohub,2013-07-10 11:57:00,
2013-07-10 08:02:00,68.2,67.6,30.03,South,180,0.0,3.0,98,0.00,,,0.00,meteohub,2013-07-10 12:02:00,
2013-07-10 08:07:00,68.4,67.8,30.03,East,90,0.0,3.0,98,0.00,,,0.00,meteohub,2013-07-10 12:07:00,
2013-07-10 08:12:00,68.4,67.8,30.03,NNE,22,1.0,3.0,98,0.00,,,0.00,meteohub,2013-07-10 12:12:00,
2013-07-10 08:17:00,68.4,67.8,30.03,ESE,112,0.0,2.0,98,0.00,,,0.00,meteohub,2013-07-10 12:17:00,
2013-07-10 08:22:00,68.4,67.8,30.03,NNE,22,2.0,2.0,98,0.00,,,0.00,meteohub,2013-07-10 12:22:00,
2013-07-10 08:27:00,68.4,67.8,30.03,SSE,158,0.0,2.0,98,0.00,,,0.00,meteohub,2013-07-10 12:27:00,
2013-07-10 08:32:00,68.4,67.8,30.06,South,180,0.0,2.0,98,0.00,,,0.00,meteohub,2013-07-10 12:32:00,
2013-07-10 08:37:00,68.5,68.0,30.06,ENE,68,0.0,2.0,98,0.00,,,0.00,meteohub,2013-07-10 12:37:00,
2013-07-10 08:42:00,68.5,68.0,30.06,SSE,158,0.0,3.0,98,0.00,,,0.00,meteohub,2013-07-10 12:42:00,
2013-07-10 08:47:00,68.7,68.2,30.06,NNE,22,0.0,3.0,98,0.00,,,0.00,meteohub,2013-07-10 12:47:00,
2013-07-10 08:52:00,68.7,68.2,30.06,ESE,112,0.0,2.0,98,0.00,,,0.00,meteohub,2013-07-10 12:52:00,
2013-07-10 08:57:00,68.9,68.4,30.06,NNW,338,1.0,2.0,98,0.00,,,0.00,meteohub,2013-07-10 12:57:00,
2013-07-10 09:02:00,69.1,68.5,30.06,SW,225,3.0,3.0,98,0.00,,,0.00,meteohub,2013-07-10 13:02:00,
2013-07-10 09:07:00,69.3,68.7,30.06,WSW,248,1.0,3.0,98,0.00,,,0.00,meteohub,2013-07-10 13:07:00,
2013-07-10 09:12:00,69.3,68.7,30.06,South,180,1.0,3.0,98,0.00,,,0.00,meteohub,2013-07-10 13:12:00,
2013-07-10 09:17:00,69.4,68.9,30.06,SSW,202,1.0,3.0,98,0.00,,,0.00,meteohub,2013-07-10 13:17:00,
2013-07-10 09:22:00,69.6,69.1,30.06,NW,315,0.0,3.0,98,0.00,,,0.00,meteohub,2013-07-10 13:22:00,
2013-07-10 09:27:00,69.8,69.3,30.06,South,180,0.0,3.0,98,0.00,,,0.00,meteohub,2013-07-10 13:27:00,
2013-07-10 09:32:00,70.0,69.4,30.06,SW,225,1.0,3.0,98,0.00,,,0.00,meteohub,2013-07-10 13:32:00,
2013-07-10 09:37:00,70.0,69.4,30.06,NNE,22,2.0,3.0,98,0.00,,,0.00,meteohub,2013-07-10 13:37:00,
2013-07-10 09:42:00,70.2,69.6,30.06,West,270,0.0,3.0,98,0.00,,,0.00,meteohub,2013-07-10 13:42:00,
2013-07-10 09:47:00,70.3,69.8,30.03,South,180,0.0,3.0,98,0.00,,,0.00,meteohub,2013-07-10 13:47:00,
2013-07-10 09:52:00,70.5,69.6,30.03,South,180,2.0,3.0,97,0.00,,,0.00,meteohub,2013-07-10 13:52:00,
2013-07-10 09:57:00,70.7,69.8,30.03,NE,45,2.0,3.0,97,0.00,,,0.00,meteohub,2013-07-10 13:57:00,
2013-07-10 10:02:00,70.9,70.0,30.00,ENE,68,0.0,3.0,97,0.00,,,0.00,meteohub,2013-07-10 14:02:00,
2013-07-10 10:07:00,71.1,70.2,30.00,SSW,202,1.0,3.0,97,0.00,,,0.00,meteohub,2013-07-10 14:07:00,
2013-07-10 10:12:00,71.2,70.3,30.00,SSW,202,1.0,3.0,97,0.00,,,0.00,meteohub,2013-07-10 14:12:00,
2013-07-10 10:17:00,71.4,70.5,30.00,SW,225,3.0,3.0,97,0.00,,,0.00,meteohub,2013-07-10 14:17:00,
2013-07-10 10:22:00,71.6,70.3,30.00,WSW,248,0.0,3.0,96,0.00,,,0.00,meteohub,2013-07-10 14:22:00,
2013-07-10 10:27:00,71.8,70.5,30.00,WSW,248,2.0,4.0,96,0.00,,,0.00,meteohub,2013-07-10 14:27:00,
2013-07-10 10:32:00,72.0,70.7,30.03,SSE,158,1.0,5.0,96,0.00,,,0.00,meteohub,2013-07-10 14:32:00,
2013-07-10 10:37:00,72.1,70.9,30.03,SW,225,0.0,5.0,96,0.00,,,0.00,meteohub,2013-07-10 14:37:00,
2013-07-10 10:42:00,72.3,70.9,30.03,South,180,0.0,5.0,95,0.00,,,0.00,meteohub,2013-07-10 14:42:00,
2013-07-10 10:47:00,72.9,71.4,30.00,West,270,2.0,3.0,95,0.00,,,0.00,meteohub,2013-07-10 14:47:00,
2013-07-10 10:52:00,73.2,71.8,30.00,NNE,22,3.0,3.0,95,0.00,,,0.00,meteohub,2013-07-10 14:52:00,
2013-07-10 10:57:00,73.9,72.1,30.00,NE,45,1.0,3.0,94,0.00,,,0.00,meteohub,2013-07-10 14:57:00,
2013-07-10 11:02:00,74.5,71.6,29.97,SW,225,2.0,4.0,91,0.00,,,0.00,meteohub,2013-07-10 15:02:00,
2013-07-10 11:07:00,74.7,71.6,29.97,South,180,0.0,4.0,90,0.00,,,0.00,meteohub,2013-07-10 15:07:00,
2013-07-10 11:12:00,74.8,71.4,29.97,WNW,292,0.0,4.0,89,0.00,,,0.00,meteohub,2013-07-10 15:12:00,
2013-07-10 11:17:00,75.0,72.0,30.00,NNW,338,1.0,4.0,90,0.00,,,0.00,meteohub,2013-07-10 15:17:00,
2013-07-10 11:22:00,75.6,72.1,30.00,NE,45,3.0,4.0,89,0.00,,,0.00,meteohub,2013-07-10 15:22:00,
2013-07-10 11:27:00,75.7,71.6,30.00,South,180,4.0,4.0,87,0.00,,,0.00,meteohub,2013-07-10 15:27:00,
2013-07-10 11:32:00,76.1,71.6,30.00,NE,45,0.0,4.0,86,0.00,,,0.00,meteohub,2013-07-10 15:32:00,
2013-07-10 11:37:00,76.3,72.1,30.00,South,180,0.0,4.0,87,0.00,,,0.00,meteohub,2013-07-10 15:37:00,
2013-07-10 11:42:00,76.5,72.3,30.00,South,180,2.0,4.0,87,0.00,,,0.00,meteohub,2013-07-10 15:42:00,
2013-07-10 11:47:00,76.6,72.5,30.00,ESE,112,0.0,3.0,87,0.00,,,0.00,meteohub,2013-07-10 15:47:00,
2013-07-10 11:52:00,77.0,72.5,30.00,South,180,2.0,2.0,86,0.00,,,0.00,meteohub,2013-07-10 15:52:00,
2013-07-10 11:57:00,77.4,72.5,30.00,SSW,202,3.0,4.0,85,0.00,,,0.00,meteohub,2013-07-10 15:57:00,
2013-07-10 12:02:00,77.7,72.1,30.00,South,180,0.0,4.0,83,0.00,,,0.00,meteohub,2013-07-10 16:02:00,
2013-07-10 12:07:00,78.3,72.3,30.00,NE,45,2.0,4.0,82,0.00,,,0.00,meteohub,2013-07-10 16:07:00,
2013-07-10 12:12:00,78.8,72.9,30.00,NE,45,2.0,6.0,82,0.00,,,0.00,meteohub,2013-07-10 16:12:00,
2013-07-10 12:17:00,79.2,72.1,29.97,SSW,202,2.0,6.0,79,0.00,,,0.00,meteohub,2013-07-10 16:17:00,
2013-07-10 12:22:00,79.3,72.3,29.97,WNW,292,1.0,6.0,79,0.00,,,0.00,meteohub,2013-07-10 16:22:00,
2013-07-10 12:27:00,79.7,73.0,29.97,WSW,248,0.0,4.0,80,0.00,,,0.00,meteohub,2013-07-10 16:27:00,
2013-07-10 12:32:00,79.9,72.9,29.97,North,0,0.0,4.0,79,0.00,,,0.00,meteohub,2013-07-10 16:32:00,
2013-07-10 12:37:00,80.2,73.0,29.97,SW,225,0.0,4.0,79,0.00,,,0.00,meteohub,2013-07-10 16:37:00,
2013-07-10 12:42:00,80.8,73.2,29.97,South,180,1.0,2.0,78,0.00,,,0.00,meteohub,2013-07-10 16:42:00,
2013-07-10 12:47:00,81.1,73.2,29.97,SW,225,3.0,5.0,77,0.00,,,0.00,meteohub,2013-07-10 16:47:00,
2013-07-10 12:52:00,81.5,72.3,29.97,WNW,292,2.0,6.0,74,0.00,,,0.00,meteohub,2013-07-10 16:52:00,
2013-07-10 12:57:00,82.2,72.3,29.97,West,270,2.0,6.0,72,0.00,,,0.00,meteohub,2013-07-10 16:57:00,
2013-07-10 13:02:00,82.6,70.9,29.94,SSE,158,3.0,6.0,68,0.00,,,0.00,meteohub,2013-07-10 17:02:00,
2013-07-10 13:07:00,82.8,71.6,29.94,West,270,2.0,6.0,69,0.00,,,0.00,meteohub,2013-07-10 17:07:00,
2013-07-10 13:12:00,83.1,71.4,29.94,SSE,158,3.0,6.0,68,0.00,,,0.00,meteohub,2013-07-10 17:12:00,
2013-07-10 13:17:00,83.8,72.5,29.94,NNW,338,0.0,5.0,69,0.00,,,0.00,meteohub,2013-07-10 17:17:00,
2013-07-10 13:22:00,83.7,71.6,29.94,WNW,292,3.0,5.0,67,0.00,,,0.00,meteohub,2013-07-10 17:22:00,
2013-07-10 13:27:00,84.0,71.4,29.94,SW,225,3.0,10.0,66,0.00,,,0.00,meteohub,2013-07-10 17:27:00,
2013-07-10 13:32:00,84.0,70.5,29.94,SSW,202,3.0,10.0,64,0.00,,,0.00,meteohub,2013-07-10 17:32:00,
2013-07-10 13:37:00,84.0,70.0,29.94,NNW,338,4.0,10.0,63,0.00,,,0.00,meteohub,2013-07-10 17:37:00,
2013-07-10 13:42:00,84.2,69.8,29.94,East,90,2.0,7.0,62,0.00,,,0.00,meteohub,2013-07-10 17:42:00,
2013-07-10 13:47:00,84.4,71.2,29.94,SSE,158,3.0,7.0,65,0.00,,,0.00,meteohub,2013-07-10 17:47:00,
2013-07-10 13:52:00,84.2,70.2,29.94,SW,225,3.0,7.0,63,0.00,,,0.00,meteohub,2013-07-10 17:52:00,
2013-07-10 13:57:00,83.8,69.8,29.94,SSE,158,4.0,7.0,63,0.00,,,0.00,meteohub,2013-07-10 17:57:00,
2013-07-10 14:07:00,84.0,70.0,29.94,SSW,202,4.0,9.0,63,0.00,,,0.00,meteohub,2013-07-10 18:07:00,
2013-07-10 14:12:00,84.0,70.5,29.94,South,180,6.0,9.0,64,0.00,,,0.00,meteohub,2013-07-10 18:12:00,
2013-07-10 14:17:00,84.0,71.1,29.91,South,180,4.0,9.0,65,0.00,,,0.00,meteohub,2013-07-10 18:17:00,
2013-07-10 14:22:00,83.8,70.3,29.91,South,180,2.0,9.0,64,0.00,,,0.00,meteohub,2013-07-10 18:22:00,
2013-07-10 14:27:00,83.7,69.3,29.91,WSW,248,3.0,9.0,62,0.00,,,0.00,meteohub,2013-07-10 18:27:00,
2013-07-10 14:32:00,83.7,70.2,29.91,WSW,248,6.0,10.0,64,0.00,,,0.00,meteohub,2013-07-10 18:32:00,
2013-07-10 14:37:00,83.7,70.2,29.91,WNW,292,3.0,10.0,64,0.00,,,0.00,meteohub,2013-07-10 18:37:00,
2013-07-10 14:42:00,83.5,70.5,29.91,West,270,2.0,10.0,65,0.00,,,0.00,meteohub,2013-07-10 18:42:00,
2013-07-10 14:47:00,83.7,69.8,29.91,WNW,292,2.0,10.0,63,0.00,,,0.00,meteohub,2013-07-10 18:47:00,
2013-07-10 14:52:00,83.8,70.9,29.91,WSW,248,4.0,10.0,65,0.00,,,0.00,meteohub,2013-07-10 18:52:00,
2013-07-10 14:57:00,84.2,70.7,29.91,South,180,4.0,10.0,64,0.00,,,0.00,meteohub,2013-07-10 18:57:00,
2013-07-10 15:02:00,84.4,71.2,29.88,SSE,158,6.0,9.0,65,0.00,,,0.00,meteohub,2013-07-10 19:02:00,
2013-07-10 15:07:00,84.0,70.5,29.88,SW,225,3.0,11.0,64,0.00,,,0.00,meteohub,2013-07-10 19:07:00,
2013-07-10 15:12:00,83.5,70.5,29.88,WSW,248,3.0,11.0,65,0.00,,,0.00,meteohub,2013-07-10 19:12:00,
2013-07-10 15:17:00,83.1,70.2,29.88,SSW,202,7.0,11.0,65,0.00,,,0.00,meteohub,2013-07-10 19:17:00,
2013-07-10 15:22:00,82.8,69.8,29.88,South,180,6.0,11.0,65,0.00,,,0.00,meteohub,2013-07-10 19:22:00,
2013-07-10 15:27:00,82.6,70.0,29.88,SW,225,4.0,11.0,66,0.00,,,0.00,meteohub,2013-07-10 19:27:00,
2013-07-10 15:32:00,82.4,70.0,29.88,South,180,2.0,10.0,66,0.00,,,0.00,meteohub,2013-07-10 19:32:00,
2013-07-10 15:37:00,82.2,70.2,29.88,South,180,2.0,6.0,67,0.00,,,0.00,meteohub,2013-07-10 19:37:00,
2013-07-10 15:42:00,82.4,70.3,29.88,WSW,248,2.0,10.0,67,0.00,,,0.00,meteohub,2013-07-10 19:42:00,
2013-07-10 15:52:00,82.6,70.9,29.85,WSW,248,4.0,10.0,68,0.00,,,0.00,meteohub,2013-07-10 19:52:00,
2013-07-10 15:57:00,82.6,70.9,29.85,South,180,2.0,5.0,68,0.00,,,0.00,meteohub,2013-07-10 19:57:00,
2013-07-10 16:02:00,82.2,71.1,29.88,SW,225,3.0,4.0,69,0.00,,,0.00,meteohub,2013-07-10 20:02:00,
2013-07-10 16:07:00,82.2,71.1,29.88,SSW,202,1.0,4.0,69,0.00,,,0.00,meteohub,2013-07-10 20:07:00,
2013-07-10 16:12:00,82.0,70.9,29.88,East,90,1.0,4.0,69,0.00,,,0.00,meteohub,2013-07-10 20:12:00,
2013-07-10 16:17:00,82.0,70.9,29.88,WSW,248,3.0,6.0,69,0.00,,,0.00,meteohub,2013-07-10 20:17:00,
2013-07-10 16:22:00,81.9,71.1,29.88,South,180,4.0,6.0,70,0.00,,,0.00,meteohub,2013-07-10 20:22:00,
2013-07-10 16:27:00,82.0,71.8,29.88,SW,225,3.0,6.0,71,0.00,,,0.00,meteohub,2013-07-10 20:27:00,
2013-07-10 16:32:00,82.0,71.8,29.88,SW,225,5.0,6.0,71,0.00,,,0.00,meteohub,2013-07-10 20:32:00,
2013-07-10 16:37:00,82.0,71.8,29.88,SW,225,2.0,8.0,71,0.00,,,0.00,meteohub,2013-07-10 20:37:00,
2013-07-10 16:47:00,81.5,71.6,29.85,South,180,3.0,8.0,72,0.00,,,0.00,meteohub,2013-07-10 20:47:00,
2013-07-10 16:52:00,81.0,72.7,29.85,SW,225,3.0,6.0,76,0.00,,,0.00,meteohub,2013-07-10 20:52:00,
2013-07-10 17:02:00,78.3,72.0,29.88,WSW,248,2.0,7.0,81,0.09,,,0.09,meteohub,2013-07-10 21:02:00,
2013-07-10 17:07:00,77.9,73.4,29.88,WNW,292,0.0,7.0,86,0.09,,,0.09,meteohub,2013-07-10 21:07:00,
2013-07-10 17:12:00,77.5,73.4,29.88,South,180,1.0,4.0,87,0.09,,,0.09,meteohub,2013-07-10 21:12:00,
2013-07-10 17:17:00,77.5,74.1,29.85,South,180,0.0,4.0,89,0.09,,,0.09,meteohub,2013-07-10 21:17:00,
2013-07-10 17:22:00,77.5,74.7,29.85,South,180,2.0,5.0,91,0.09,,,0.09,meteohub,2013-07-10 21:22:00,
2013-07-10 17:27:00,77.5,74.7,29.85,WSW,248,2.0,6.0,91,0.09,,,0.09,meteohub,2013-07-10 21:27:00,
2013-07-10 17:32:00,77.4,74.8,29.85,South,180,3.0,6.0,92,0.09,,,0.09,meteohub,2013-07-10 21:32:00,
2013-07-10 17:37:00,77.2,74.3,29.85,SSE,158,4.0,6.0,91,0.09,,,0.09,meteohub,2013-07-10 21:37:00,
2013-07-10 17:42:00,77.2,74.3,29.85,South,180,3.0,4.0,91,0.09,,,0.09,meteohub,2013-07-10 21:42:00,
2013-07-10 17:47:00,77.0,73.8,29.85,WSW,248,3.0,5.0,90,0.09,,,0.09,meteohub,2013-07-10 21:47:00,
2013-07-10 17:52:00,76.8,73.9,29.85,WNW,292,1.0,5.0,91,0.09,,,0.09,meteohub,2013-07-10 21:52:00,
2013-07-10 18:02:00,76.6,73.8,29.85,SSW,202,5.0,6.0,91,0.00,,,0.09,meteohub,2013-07-10 22:02:00,
2013-07-10 18:07:00,76.6,73.8,29.85,WSW,248,2.0,5.0,91,0.00,,,0.09,meteohub,2013-07-10 22:07:00,
2013-07-10 18:12:00,76.6,73.8,29.85,SW,225,1.0,5.0,91,0.00,,,0.09,meteohub,2013-07-10 22:12:00,
2013-07-10 18:17:00,76.5,73.6,29.85,WSW,248,3.0,5.0,91,0.00,,,0.09,meteohub,2013-07-10 22:17:00,
2013-07-10 18:22:00,76.5,73.9,29.85,South,180,2.0,4.0,92,0.00,,,0.09,meteohub,2013-07-10 22:22:00,
2013-07-10 18:27:00,76.5,73.9,29.85,ESE,112,4.0,5.0,92,0.00,,,0.09,meteohub,2013-07-10 22:27:00,
2013-07-10 18:32:00,76.5,73.9,29.85,SW,225,0.0,5.0,92,0.00,,,0.09,meteohub,2013-07-10 22:32:00,
2013-07-10 18:37:00,76.5,73.9,29.85,WNW,292,0.0,5.0,92,0.00,,,0.09,meteohub,2013-07-10 22:37:00,
2013-07-10 18:42:00,76.3,74.1,29.85,South,180,1.0,5.0,93,0.00,,,0.09,meteohub,2013-07-10 22:42:00,
2013-07-10 18:47:00,76.1,73.9,29.85,SSW,202,1.0,3.0,93,0.00,,,0.09,meteohub,2013-07-10 22:47:00,
2013-07-10 18:52:00,75.9,73.8,29.85,WNW,292,1.0,4.0,93,0.04,,,0.13,meteohub,2013-07-10 22:52:00,
2013-07-10 18:57:00,75.9,74.1,29.85,SW,225,2.0,4.0,94,0.04,,,0.13,meteohub,2013-07-10 22:57:00,
2013-07-10 19:02:00,75.7,73.9,29.85,South,180,1.0,4.0,94,0.04,,,0.13,meteohub,2013-07-10 23:02:00,
2013-07-10 19:07:00,75.7,74.1,29.85,SW,225,2.0,4.0,95,0.04,,,0.13,meteohub,2013-07-10 23:07:00,
2013-07-10 19:12:00,75.7,74.1,29.85,WSW,248,1.0,4.0,95,0.04,,,0.13,meteohub,2013-07-10 23:12:00,
2013-07-10 19:17:00,75.6,73.9,29.85,SW,225,1.0,4.0,95,0.04,,,0.13,meteohub,2013-07-10 23:17:00,
2013-07-10 19:22:00,75.4,73.8,29.85,WNW,292,0.0,4.0,95,0.04,,,0.13,meteohub,2013-07-10 23:22:00,
2013-07-10 19:27:00,75.4,73.8,29.85,South,180,2.0,3.0,95,0.04,,,0.13,meteohub,2013-07-10 23:27:00,
2013-07-10 19:32:00,75.2,73.6,29.85,South,180,0.0,3.0,95,0.04,,,0.13,meteohub,2013-07-10 23:32:00,
2013-07-10 19:37:00,75.4,74.1,29.85,South,180,0.0,2.0,96,0.04,,,0.13,meteohub,2013-07-10 23:37:00,
2013-07-10 19:42:00,75.2,73.9,29.85,South,180,0.0,3.0,96,0.04,,,0.13,meteohub,2013-07-10 23:42:00,
2013-07-10 19:47:00,75.2,73.9,29.85,South,180,0.0,3.0,96,0.04,,,0.13,meteohub,2013-07-10 23:47:00,
2013-07-10 19:52:00,75.2,73.9,29.85,South,180,0.0,3.0,96,0.00,,,0.13,meteohub,2013-07-10 23:52:00,
2013-07-10 19:57:00,75.2,73.9,29.85,SW,225,0.0,3.0,96,0.00,,,0.13,meteohub,2013-07-10 23:57:00,
2013-07-10 20:02:00,75.2,73.9,29.85,SE,135,2.0,2.0,96,0.00,,,0.13,meteohub,2013-07-11 00:02:00,
2013-07-10 20:07:00,75.2,74.3,29.85,SW,225,0.0,4.0,97,0.00,,,0.00,meteohub,2013-07-11 00:07:00,
2013-07-10 20:12:00,75.2,74.3,29.85,SSE,158,1.0,4.0,97,0.00,,,0.00,meteohub,2013-07-11 00:12:00,
2013-07-10 20:17:00,75.2,74.3,29.88,SSE,158,2.0,4.0,97,0.00,,,0.00,meteohub,2013-07-11 00:17:00,
2013-07-10 20:22:00,75.2,74.3,29.88,South,180,0.0,4.0,97,0.00,,,0.00,meteohub,2013-07-11 00:22:00,
2013-07-10 20:27:00,75.0,74.1,29.88,South,180,3.0,4.0,97,0.00,,,0.00,meteohub,2013-07-11 00:27:00,
2013-07-10 20:32:00,75.0,74.1,29.88,SW,225,1.0,4.0,97,0.00,,,0.00,meteohub,2013-07-11 00:32:00,
2013-07-10 20:37:00,75.0,74.5,29.88,South,180,1.0,4.0,98,0.00,,,0.00,meteohub,2013-07-11 00:37:00,
2013-07-10 20:42:00,75.0,74.5,29.88,SSW,202,0.0,3.0,98,0.00,,,0.00,meteohub,2013-07-11 00:42:00,
2013-07-10 20:47:00,75.0,74.5,29.88,South,180,2.0,3.0,98,0.00,,,0.00,meteohub,2013-07-11 00:47:00,
2013-07-10 20:52:00,74.8,74.3,29.88,NNW,338,2.0,5.0,98,0.00,,,0.00,meteohub,2013-07-11 00:52:00,
2013-07-10 20:57:00,74.8,74.3,29.88,SSW,202,3.0,5.0,98,0.00,,,0.00,meteohub,2013-07-11 00:57:00,
2013-07-10 21:02:00,74.8,74.3,29.88,South,180,1.0,5.0,98,0.04,,,0.04,meteohub,2013-07-11 01:02:00,
2013-07-10 21:07:00,74.8,74.3,29.88,South,180,4.0,4.0,98,0.04,,,0.04,meteohub,2013-07-11 01:07:00,
2013-07-10 21:12:00,74.8,74.3,29.88,South,180,0.0,4.0,98,0.04,,,0.04,meteohub,2013-07-11 01:12:00,
2013-07-10 21:17:00,74.8,74.3,29.85,West,270,0.0,4.0,98,0.04,,,0.04,meteohub,2013-07-11 01:17:00,
2013-07-10 21:22:00,74.8,74.3,29.85,SW,225,0.0,4.0,98,0.04,,,0.04,meteohub,2013-07-11 01:22:00,
2013-07-10 21:27:00,74.8,74.3,29.85,SW,225,0.0,3.0,98,0.04,,,0.04,meteohub,2013-07-11 01:27:00,
2013-07-10 21:32:00,74.8,74.3,29.85,South,180,2.0,3.0,98,0.04,,,0.04,meteohub,2013-07-11 01:32:00,
2013-07-10 21:37:00,74.8,74.3,29.85,SW,225,0.0,3.0,98,0.04,,,0.04,meteohub,2013-07-11 01:37:00,
2013-07-10 21:42:00,74.8,74.3,29.85,West,270,3.0,3.0,98,0.04,,,0.04,meteohub,2013-07-11 01:42:00,
2013-07-10 21:47:00,74.8,74.3,29.88,SSE,158,2.0,4.0,98,0.04,,,0.04,meteohub,2013-07-11 01:47:00,
2013-07-10 21:52:00,74.8,74.3,29.88,SE,135,4.0,4.0,98,0.04,,,0.04,meteohub,2013-07-11 01:52:00,
2013-07-10 21:57:00,74.7,74.1,29.88,South,180,1.0,4.0,98,0.04,,,0.04,meteohub,2013-07-11 01:57:00,
2013-07-10 22:02:00,74.7,74.1,29.88,South,180,1.0,4.0,98,0.00,,,0.04,meteohub,2013-07-11 02:02:00,
2013-07-10 22:07:00,74.7,74.1,29.88,SSW,202,0.0,4.0,98,0.00,,,0.04,meteohub,2013-07-11 02:07:00,
2013-07-10 22:12:00,74.7,74.1,29.88,South,180,0.0,3.0,98,0.00,,,0.04,meteohub,2013-07-11 02:12:00,
2013-07-10 22:17:00,74.7,74.1,29.88,SSW,202,4.0,4.0,98,0.00,,,0.04,meteohub,2013-07-11 02:17:00,
2013-07-10 22:22:00,74.5,73.9,29.88,SW,225,0.0,4.0,98,0.00,,,0.04,meteohub,2013-07-11 02:22:00,
2013-07-10 22:27:00,74.5,73.9,29.88,SW,225,0.0,4.0,98,0.00,,,0.04,meteohub,2013-07-11 02:27:00,
2013-07-10 22:32:00,74.5,73.9,29.88,SSE,158,1.0,4.0,98,0.00,,,0.04,meteohub,2013-07-11 02:32:00,
2013-07-10 22:37:00,74.5,73.9,29.88,WSW,248,1.0,2.0,98,0.00,,,0.04,meteohub,2013-07-11 02:37:00,
2013-07-10 22:42:00,74.5,73.9,29.88,South,180,2.0,5.0,98,0.00,,,0.04,meteohub,2013-07-11 02:42:00,
2013-07-10 22:47:00,74.5,73.9,29.88,SSW,202,0.0,5.0,98,0.00,,,0.04,meteohub,2013-07-11 02:47:00,
2013-07-10 22:52:00,74.3,73.8,29.88,SSE,158,0.0,4.0,98,0.00,,,0.04,meteohub,2013-07-11 02:52:00,
2013-07-10 22:57:00,74.5,73.9,29.88,SSW,202,0.0,3.0,98,0.00,,,0.04,meteohub,2013-07-11 02:57:00,
2013-07-10 23:02:00,74.5,73.9,29.88,SSW,202,0.0,4.0,98,0.00,,,0.04,meteohub,2013-07-11 03:02:00,
2013-07-10 23:07:00,74.3,73.8,29.88,South,180,0.0,4.0,98,0.00,,,0.04,meteohub,2013-07-11 03:07:00,
2013-07-10 23:12:00,74.3,73.8,29.88,South,180,0.0,4.0,98,0.00,,,0.04,meteohub,2013-07-11 03:12:00,
2013-07-10 23:17:00,74.3,73.8,29.88,WNW,292,0.0,4.0,98,0.00,,,0.04,meteohub,2013-07-11 03:17:00,
2013-07-10 23:22:00,74.5,73.9,29.88,SW,225,0.0,4.0,98,0.00,,,0.04,meteohub,2013-07-11 03:22:00,
2013-07-10 23:27:00,74.3,73.8,29.88,South,180,2.0,7.0,98,0.00,,,0.04,meteohub,2013-07-11 03:27:00,
2013-07-10 23:32:00,74.3,73.8,29.88,South,180,3.0,7.0,98,0.00,,,0.04,meteohub,2013-07-11 03:32:00,
2013-07-10 23:37:00,74.3,73.8,29.88,WSW,248,4.0,4.0,98,0.00,,,0.04,meteohub,2013-07-11 03:37:00,
2013-07-10 23:42:00,74.3,73.8,29.88,SW,225,0.0,4.0,98,0.00,,,0.04,meteohub,2013-07-11 03:42:00,
2013-07-10 23:47:00,74.3,73.8,29.88,South,180,2.0,4.0,98,0.00,,,0.04,meteohub,2013-07-11 03:47:00,
2013-07-10 23:52:00,74.3,73.8,29.88,SSW,202,0.0,4.0,98,0.00,,,0.04,meteohub,2013-07-11 03:52:00,
2013-07-10 23:57:00,74.1,73.6,29.88,ESE,112,4.0,5.0,98,0.00,,,0.04,meteohub,2013-07-11 03:57:00,